,,,PA_Meas_PMT16A,,PR_Meas_QMR101_102,,RH_Meas_QMH101,,SR_Meas_QMS101,,TA_Meas_QMH101,,GenWind,,GenWind,
date,time,status,PA,status,PR,status,RH,status,SR,status,TA,status,DirAvg,status,SpdAvg,
2010-05-04, 00:00:04,VALID,998.88,VALID,0,VALID,92.7228,VALID,0,VALID,23.9744,VALID,127,VALID,0.235156,
2010-05-04, 00:01:04,VALID,998.862,VALID,0,VALID,92.7304,VALID,0,VALID,23.9336,VALID,127,VALID,0.376563,
2010-05-04, 00:02:04,VALID,998.824,VALID,0,VALID,92.7762,VALID,0,VALID,23.9744,VALID,127,VALID,0.4,
2010-05-04, 00:03:04,VALID,998.851,VALID,0,VALID,92.7685,VALID,0,VALID,23.9744,VALID,127,VALID,0,
2010-05-04, 00:04:04,VALID,998.828,VALID,0,VALID,92.7685,VALID,0,VALID,23.9336,VALID,127,VALID,0,
2010-05-04, 00:05:04,VALID,998.833,VALID,0,VALID,92.738,VALID,0,VALID,23.9354,VALID,127,VALID,0,
2010-05-04, 00:06:04,VALID,998.817,VALID,0,VALID,92.7151,VALID,0,VALID,23.8963,VALID,127,VALID,0,
2010-05-04, 00:07:04,VALID,998.793,VALID,0,VALID,92.6846,VALID,0,VALID,23.8573,VALID,127,VALID,0,
2010-05-04, 00:08:04,VALID,998.8,VALID,0,VALID,92.6846,VALID,0,VALID,23.8378,VALID,127,VALID,0,
2010-05-04, 00:09:04,VALID,998.766,VALID,0,VALID,92.7075,VALID,0,VALID,23.8183,VALID,127,VALID,0,
2010-05-04, 00:10:04,VALID,998.782,VALID,0,VALID,92.7838,VALID,0,VALID,23.7988,VALID,127,VALID,0,
2010-05-04, 00:11:04,VALID,998.747,VALID,0,VALID,92.7914,VALID,0,VALID,23.7775,VALID,127,VALID,0,
2010-05-04, 00:12:04,VALID,998.751,VALID,0,VALID,92.8677,VALID,0,VALID,23.7579,VALID,127,VALID,0,
2010-05-04, 00:13:04,VALID,998.739,VALID,0,VALID,92.8906,VALID,0,VALID,23.7793,VALID,127,VALID,0,
2010-05-04, 00:14:04,VALID,998.758,VALID,0,VALID,92.9745,VALID,0,VALID,23.7579,VALID,127,VALID,0,
2010-05-04, 00:15:04,VALID,998.763,VALID,0,VALID,92.9517,VALID,0,VALID,23.7384,VALID,127,VALID,0,
2010-05-04, 00:16:04,VALID,998.751,VALID,0,VALID,93.0127,VALID,0,VALID,23.7597,VALID,127,VALID,0,
2010-05-04, 00:17:04,VALID,998.742,VALID,0,VALID,93.0585,VALID,0,VALID,23.7597,VALID,127,VALID,0,
2010-05-04, 00:18:04,VALID,998.724,VALID,0,VALID,93.1729,VALID,0,VALID,23.7597,VALID,127,VALID,0,
2010-05-04, 00:19:04,VALID,998.649,VALID,0,VALID,93.2263,VALID,0,VALID,23.7988,VALID,127,VALID,0,
2010-05-04, 00:20:04,VALID,998.65,VALID,0,VALID,93.2263,VALID,0,VALID,23.797,VALID,127,VALID,0,
2010-05-04, 00:21:04,VALID,998.597,VALID,0,VALID,93.2111,VALID,0,VALID,23.7988,VALID,127,VALID,0,
2010-05-04, 00:22:04,VALID,998.636,VALID,0,VALID,93.1882,VALID,0,VALID,23.797,VALID,127,VALID,0.392188,
2010-05-04, 00:23:04,VALID,998.573,VALID,0,VALID,93.1653,VALID,0,VALID,23.7597,VALID,127,VALID,0.533984,
2010-05-04, 00:24:04,VALID,998.565,VALID,0,VALID,93.2034,VALID,0,VALID,23.7189,VALID,127,VALID,0.431641,
2010-05-04, 00:25:04,VALID,998.556,VALID,0,VALID,93.1348,VALID,0,VALID,23.6817,VALID,127,VALID,0.466016,
2010-05-04, 00:26:04,VALID,998.541,VALID,0,VALID,93.2034,VALID,0,VALID,23.6214,VALID,127,VALID,0.356641,
2010-05-04, 00:27:04,VALID,998.53,VALID,0,VALID,93.234,VALID,0,VALID,23.6232,VALID,127,VALID,0.202734,
2010-05-04, 00:28:04,VALID,998.498,VALID,0,VALID,93.2263,VALID,0,VALID,23.6036,VALID,127,VALID,0.01875,
2010-05-04, 00:29:04,VALID,998.515,VALID,0,VALID,93.2111,VALID,0,VALID,23.5628,VALID,127,VALID,0,
2010-05-04, 00:30:04,VALID,998.516,VALID,0,VALID,93.2111,VALID,0,VALID,23.5451,VALID,127,VALID,0,
2010-05-04, 00:31:04,VALID,998.504,VALID,0,VALID,93.2416,VALID,0,VALID,23.5256,VALID,127,VALID,0,
2010-05-04, 00:32:04,VALID,998.474,VALID,0,VALID,93.2416,VALID,0,VALID,23.5043,VALID,127,VALID,0,
2010-05-04, 00:33:04,VALID,998.467,VALID,0,VALID,93.3408,VALID,0,VALID,23.5238,VALID,127,VALID,0,
2010-05-04, 00:34:04,VALID,998.424,VALID,0,VALID,93.3789,VALID,0,VALID,23.5841,VALID,127,VALID,0,
2010-05-04, 00:35:04,VALID,998.429,VALID,0,VALID,93.44,VALID,0,VALID,23.6019,VALID,127,VALID,0,
2010-05-04, 00:36:04,VALID,998.392,VALID,0,VALID,93.4705,VALID,0,VALID,23.6019,VALID,127,VALID,0,
2010-05-04, 00:37:04,VALID,998.407,VALID,0,VALID,93.4705,VALID,0,VALID,23.6214,VALID,127,VALID,0.307813,
2010-05-04, 00:38:04,VALID,998.409,VALID,0,VALID,93.4857,VALID,0,VALID,23.6427,VALID,127,VALID,0.0269531,
2010-05-04, 00:39:04,VALID,998.417,VALID,0,VALID,93.4628,VALID,0,VALID,23.6427,VALID,127,VALID,0.0289063,
2010-05-04, 00:40:04,VALID,998.436,VALID,0,VALID,93.4934,VALID,0,VALID,23.6817,VALID,127,VALID,0,
2010-05-04, 00:41:04,VALID,998.429,VALID,0,VALID,93.4857,VALID,0,VALID,23.6622,VALID,127,VALID,0,
2010-05-04, 00:42:04,VALID,998.432,VALID,0,VALID,93.5315,VALID,0,VALID,23.6817,VALID,127,VALID,0,
2010-05-04, 00:43:04,VALID,998.423,VALID,0,VALID,93.4781,VALID,0,VALID,23.6409,VALID,127,VALID,0,
2010-05-04, 00:44:04,VALID,998.4,VALID,0,VALID,93.4781,VALID,0,VALID,23.6232,VALID,72,VALID,0.688672,
2010-05-04, 00:45:04,VALID,998.403,VALID,0,VALID,93.4628,VALID,0,VALID,23.5823,VALID,42,VALID,0.821484,
2010-05-04, 00:46:04,VALID,998.346,VALID,0,VALID,93.44,VALID,0,VALID,23.5646,VALID,38,VALID,0.864844,
2010-05-04, 00:47:04,VALID,998.313,VALID,0,VALID,93.3942,VALID,0,VALID,23.5061,VALID,20,VALID,1.27891,
2010-05-04, 00:48:04,VALID,998.295,VALID,0,VALID,93.3713,VALID,0,VALID,23.4263,VALID,10,VALID,1.20039,
2010-05-04, 00:49:04,VALID,998.263,VALID,0,VALID,93.4705,VALID,0,VALID,23.4263,VALID,359,VALID,1.01797,
2010-05-04, 00:50:04,VALID,998.233,VALID,0,VALID,93.501,VALID,0,VALID,23.4848,VALID,351,VALID,0.828125,
2010-05-04, 00:51:04,VALID,998.19,VALID,0,VALID,93.5544,VALID,0,VALID,23.5061,VALID,10,VALID,0.872656,
2010-05-04, 00:52:04,VALID,998.144,VALID,0,VALID,93.5315,VALID,0,VALID,23.4653,VALID,9,VALID,0.709766,
2010-05-04, 00:53:04,VALID,998.107,VALID,0,VALID,93.5849,VALID,0,VALID,23.4848,VALID,9,VALID,0.822656,
2010-05-04, 00:54:04,VALID,998.094,VALID,0,VALID,93.5926,VALID,0,VALID,23.5256,VALID,9,VALID,0.657812,
2010-05-04, 00:55:04,VALID,998.087,VALID,0,VALID,93.6002,VALID,0,VALID,23.5061,VALID,12,VALID,0.701563,
2010-05-04, 00:56:04,VALID,998.087,VALID,0,VALID,93.6154,VALID,0,VALID,23.5061,VALID,14,VALID,0.426953,
2010-05-04, 00:57:04,VALID,998.108,VALID,0,VALID,93.6002,VALID,0,VALID,23.4848,VALID,14,VALID,0.390234,
2010-05-04, 00:58:04,VALID,998.099,VALID,0,VALID,93.5773,VALID,0,VALID,23.4866,VALID,14,VALID,0.177344,
2010-05-04, 00:59:04,VALID,998.103,VALID,0,VALID,93.562,VALID,0,VALID,23.4458,VALID,14,VALID,0.193359,
2010-05-04, 01:00:04,VALID,998.104,VALID,0,VALID,93.5697,VALID,0,VALID,23.428,VALID,24,VALID,0.545313,
2010-05-04, 01:01:04,VALID,998.104,VALID,0,VALID,93.5773,VALID,0,VALID,23.428,VALID,109,VALID,0.738672,
2010-05-04, 01:02:04,VALID,998.083,VALID,0,VALID,93.5926,VALID,0,VALID,23.428,VALID,122,VALID,0.853125,
2010-05-04, 01:03:04,VALID,998.088,VALID,0,VALID,93.5773,VALID,0,VALID,23.389,VALID,124,VALID,0.867578,
2010-05-04, 01:04:04,VALID,998.118,VALID,0,VALID,93.5697,VALID,0,VALID,23.3695,VALID,121,VALID,0.867969,
2010-05-04, 01:05:04,VALID,998.087,VALID,0,VALID,93.5773,VALID,0,VALID,23.3305,VALID,120,VALID,0.78125,
2010-05-04, 01:06:04,VALID,998.097,VALID,0,VALID,93.6536,VALID,0,VALID,23.35,VALID,118,VALID,0.576563,
2010-05-04, 01:07:04,VALID,998.08,VALID,0,VALID,93.6917,VALID,0,VALID,23.3695,VALID,118,VALID,0.408203,
2010-05-04, 01:08:04,VALID,998.102,VALID,0,VALID,93.6841,VALID,0,VALID,23.389,VALID,118,VALID,0.201562,
2010-05-04, 01:09:04,VALID,998.095,VALID,0,VALID,93.6765,VALID,0,VALID,23.4085,VALID,119,VALID,0.130078,
2010-05-04, 01:10:04,VALID,998.098,VALID,0,VALID,93.6841,VALID,0,VALID,23.4085,VALID,119,VALID,0.00117188,
2010-05-04, 01:11:04,VALID,998.096,VALID,0,VALID,93.7299,VALID,0,VALID,23.4475,VALID,119,VALID,0.392969,
2010-05-04, 01:12:04,VALID,998.092,VALID,0,VALID,93.7299,VALID,0,VALID,23.4671,VALID,141,VALID,0.676562,
2010-05-04, 01:13:04,VALID,998.074,VALID,0,VALID,93.7451,VALID,0,VALID,23.4671,VALID,141,VALID,0.619141,
2010-05-04, 01:14:04,VALID,998.034,VALID,0,VALID,93.7375,VALID,0,VALID,23.4653,VALID,137,VALID,0.813281,
2010-05-04, 01:15:04,VALID,998.043,VALID,0,VALID,93.768,VALID,0,VALID,23.5061,VALID,136,VALID,0.542188,
2010-05-04, 01:16:04,VALID,998.016,VALID,0,VALID,93.7528,VALID,0,VALID,23.5256,VALID,136,VALID,0.466406,
2010-05-04, 01:17:04,VALID,997.958,VALID,0,VALID,93.7223,VALID,0,VALID,23.5256,VALID,156,VALID,0.523828,
2010-05-04, 01:18:04,VALID,997.939,VALID,0,VALID,93.7375,VALID,0,VALID,23.5238,VALID,156,VALID,0.760547,
2010-05-04, 01:19:04,VALID,997.916,VALID,0,VALID,93.7299,VALID,0,VALID,23.5646,VALID,155,VALID,0.740234,
2010-05-04, 01:20:04,VALID,997.921,VALID,0,VALID,93.6994,VALID,0,VALID,23.5238,VALID,156,VALID,0.516797,
2010-05-04, 01:21:04,VALID,997.887,VALID,0,VALID,93.6765,VALID,0,VALID,23.5646,VALID,156,VALID,0.456641,
2010-05-04, 01:22:04,VALID,997.859,VALID,0,VALID,93.6383,VALID,0,VALID,23.5433,VALID,155,VALID,0.475,
2010-05-04, 01:23:04,VALID,997.854,VALID,0,VALID,93.6154,VALID,0,VALID,23.5256,VALID,143,VALID,0.280859,
2010-05-04, 01:24:04,VALID,997.843,VALID,0,VALID,93.5697,VALID,0,VALID,23.5256,VALID,143,VALID,0,
2010-05-04, 01:25:04,VALID,997.796,VALID,0,VALID,93.5391,VALID,0,VALID,23.5061,VALID,144,VALID,0,
2010-05-04, 01:26:04,VALID,997.786,VALID,0,VALID,93.5391,VALID,0,VALID,23.5043,VALID,144,VALID,0,
2010-05-04, 01:27:04,VALID,997.749,VALID,0,VALID,93.5468,VALID,0,VALID,23.5433,VALID,198,VALID,0,
2010-05-04, 01:28:04,VALID,997.747,VALID,0,VALID,93.4934,VALID,0,VALID,23.5646,VALID,205,VALID,0.516016,
2010-05-04, 01:29:04,VALID,997.729,VALID,0,VALID,93.4781,VALID,0,VALID,23.5646,VALID,217,VALID,0.420312,
2010-05-04, 01:30:04,VALID,997.708,VALID,0,VALID,93.4628,VALID,0,VALID,23.5433,VALID,217,VALID,0.220703,
2010-05-04, 01:31:04,VALID,997.684,VALID,0,VALID,93.4476,VALID,0,VALID,23.5646,VALID,217,VALID,0.0804688,
2010-05-04, 01:32:04,VALID,997.667,VALID,0,VALID,93.3942,VALID,0,VALID,23.5646,VALID,217,VALID,0.145703,
2010-05-04, 01:33:04,VALID,997.669,VALID,0,VALID,93.3331,VALID,0,VALID,23.5256,VALID,217,VALID,0,
2010-05-04, 01:34:04,VALID,997.636,VALID,0,VALID,93.3026,VALID,0,VALID,23.5256,VALID,217,VALID,0.321094,
2010-05-04, 01:35:04,VALID,997.611,VALID,0,VALID,93.2874,VALID,0,VALID,23.4671,VALID,217,VALID,0.433984,
2010-05-04, 01:36:04,VALID,997.603,VALID,0,VALID,93.1958,VALID,0,VALID,23.4263,VALID,217,VALID,0.405078,
2010-05-04, 01:37:04,VALID,997.621,VALID,0,VALID,93.3255,VALID,0,VALID,23.4671,VALID,217,VALID,0.341406,
2010-05-04, 01:38:04,VALID,997.631,VALID,0,VALID,93.356,VALID,0,VALID,23.4866,VALID,217,VALID,0.180469,
2010-05-04, 01:39:04,VALID,997.639,VALID,0,VALID,93.3637,VALID,0,VALID,23.4866,VALID,217,VALID,0.190625,
2010-05-04, 01:40:04,VALID,997.607,VALID,0,VALID,93.3179,VALID,0,VALID,23.4671,VALID,198,VALID,0.00195313,
2010-05-04, 01:41:04,VALID,997.618,VALID,0,VALID,93.2568,VALID,0,VALID,23.4475,VALID,174,VALID,0,
2010-05-04, 01:42:04,VALID,997.574,VALID,0,VALID,93.2645,VALID,0,VALID,23.4475,VALID,174,VALID,0,
2010-05-04, 01:43:04,VALID,997.535,VALID,0,VALID,93.2568,VALID,0,VALID,23.428,VALID,174,VALID,0,
2010-05-04, 01:44:04,VALID,997.516,VALID,0,VALID,93.2492,VALID,0,VALID,23.4085,VALID,174,VALID,0,
2010-05-04, 01:45:04,VALID,997.509,VALID,0,VALID,93.1882,VALID,0,VALID,23.428,VALID,173,VALID,0,
2010-05-04, 01:46:04,VALID,997.481,VALID,0,VALID,93.15,VALID,0,VALID,23.3695,VALID,41,VALID,0.787891,
2010-05-04, 01:47:04,VALID,997.47,VALID,0,VALID,93.0814,VALID,0,VALID,23.3305,VALID,41,VALID,0.770703,
2010-05-04, 01:48:04,VALID,997.444,VALID,0,VALID,93.0051,VALID,0,VALID,23.2915,VALID,38,VALID,0.663672,
2010-05-04, 01:49:04,VALID,997.426,VALID,0,VALID,93.0051,VALID,0,VALID,23.2524,VALID,18,VALID,0.839063,
2010-05-04, 01:50:04,VALID,997.449,VALID,0,VALID,93.089,VALID,0,VALID,23.2134,VALID,351,VALID,0.686719,
2010-05-04, 01:51:04,VALID,997.443,VALID,0,VALID,93.2187,VALID,0,VALID,23.2524,VALID,350,VALID,0.61875,
2010-05-04, 01:52:04,VALID,997.43,VALID,0,VALID,93.2797,VALID,0,VALID,23.2524,VALID,343,VALID,0.735156,
2010-05-04, 01:53:04,VALID,997.431,VALID,0,VALID,93.3026,VALID,0,VALID,23.2507,VALID,343,VALID,0.573438,
2010-05-04, 01:54:04,VALID,997.463,VALID,0,VALID,93.356,VALID,0,VALID,23.2915,VALID,335,VALID,0.410156,
2010-05-04, 01:55:04,VALID,997.459,VALID,0,VALID,93.4171,VALID,0,VALID,23.2897,VALID,335,VALID,0.358594,
2010-05-04, 01:56:04,VALID,997.446,VALID,0,VALID,93.4323,VALID,0,VALID,23.311,VALID,335,VALID,0,
2010-05-04, 01:57:04,VALID,997.456,VALID,0,VALID,93.4552,VALID,0,VALID,23.2897,VALID,335,VALID,0,
2010-05-04, 01:58:04,VALID,997.464,VALID,0,VALID,93.4781,VALID,0,VALID,23.35,VALID,335,VALID,0,
2010-05-04, 01:59:04,VALID,997.439,VALID,0,VALID,93.4934,VALID,0,VALID,23.3482,VALID,335,VALID,0,
2010-05-04, 02:00:04,VALID,997.484,VALID,0,VALID,93.4857,VALID,0,VALID,23.3287,VALID,335,VALID,0,
2010-05-04, 02:01:04,VALID,997.486,VALID,0,VALID,93.501,VALID,0,VALID,23.3305,VALID,335,VALID,0,
2010-05-04, 02:02:04,VALID,997.478,VALID,0,VALID,93.5239,VALID,0,VALID,23.3287,VALID,335,VALID,0,
2010-05-04, 02:03:04,VALID,997.486,VALID,0,VALID,93.5391,VALID,0,VALID,23.3695,VALID,335,VALID,0,
2010-05-04, 02:04:04,VALID,997.482,VALID,0,VALID,93.5697,VALID,0,VALID,23.3677,VALID,335,VALID,0,
2010-05-04, 02:05:04,VALID,997.473,VALID,0,VALID,93.6154,VALID,0,VALID,23.3872,VALID,335,VALID,0,
2010-05-04, 02:06:04,VALID,997.461,VALID,0,VALID,93.6154,VALID,0,VALID,23.3872,VALID,335,VALID,0,
2010-05-04, 02:07:04,VALID,997.5,VALID,0,VALID,93.5849,VALID,0.112286,VALID,23.4263,VALID,335,VALID,0,
2010-05-04, 02:08:04,VALID,997.451,VALID,0,VALID,93.6154,VALID,0,VALID,23.4067,VALID,335,VALID,0,
2010-05-04, 02:09:04,VALID,997.492,VALID,0,VALID,93.6307,VALID,0,VALID,23.4458,VALID,335,VALID,0,
2010-05-04, 02:10:04,VALID,997.479,VALID,0,VALID,93.6231,VALID,0,VALID,23.4671,VALID,335,VALID,0,
2010-05-04, 02:11:04,VALID,997.505,VALID,0,VALID,93.5849,VALID,0,VALID,23.4067,VALID,335,VALID,0,
2010-05-04, 02:12:04,VALID,997.51,VALID,0,VALID,93.5773,VALID,0.112286,VALID,23.3872,VALID,335,VALID,0,
2010-05-04, 02:13:04,VALID,997.484,VALID,0,VALID,93.5544,VALID,0,VALID,23.3482,VALID,335,VALID,0,
2010-05-04, 02:14:04,VALID,997.529,VALID,0,VALID,93.6231,VALID,0,VALID,23.3695,VALID,335,VALID,0,
2010-05-04, 02:15:04,VALID,997.506,VALID,0,VALID,93.6307,VALID,0,VALID,23.3695,VALID,336,VALID,0,
2010-05-04, 02:16:04,VALID,997.522,VALID,0,VALID,93.6231,VALID,0.112286,VALID,23.3482,VALID,79,VALID,0,
2010-05-04, 02:17:04,VALID,997.508,VALID,0,VALID,93.646,VALID,0,VALID,23.3695,VALID,80,VALID,0,
2010-05-04, 02:18:04,VALID,997.503,VALID,0,VALID,93.6078,VALID,0,VALID,23.3287,VALID,80,VALID,0,
2010-05-04, 02:19:04,VALID,997.466,VALID,0,VALID,93.5849,VALID,0,VALID,23.311,VALID,83,VALID,0.957422,
2010-05-04, 02:20:04,VALID,997.416,VALID,0,VALID,93.562,VALID,0,VALID,23.2507,VALID,83,VALID,0.917969,
2010-05-04, 02:21:04,VALID,997.425,VALID,0,VALID,93.5697,VALID,0,VALID,23.2117,VALID,83,VALID,0.763281,
2010-05-04, 02:22:04,VALID,997.379,VALID,0,VALID,93.6078,VALID,0,VALID,23.2117,VALID,83,VALID,0.653906,
2010-05-04, 02:23:04,VALID,997.393,VALID,0,VALID,93.562,VALID,0,VALID,23.1726,VALID,83,VALID,0.449219,
2010-05-04, 02:24:04,VALID,997.381,VALID,0,VALID,93.5773,VALID,0,VALID,23.1336,VALID,83,VALID,0.287109,
2010-05-04, 02:25:04,VALID,997.377,VALID,0,VALID,93.5849,VALID,0,VALID,23.1159,VALID,83,VALID,0,
2010-05-04, 02:26:04,VALID,997.367,VALID,0,VALID,93.5544,VALID,0,VALID,23.0556,VALID,83,VALID,0,
2010-05-04, 02:27:04,VALID,997.371,VALID,0,VALID,93.5773,VALID,0,VALID,23.0573,VALID,83,VALID,0,
2010-05-04, 02:28:04,VALID,997.369,VALID,0,VALID,93.6002,VALID,0,VALID,23.0556,VALID,83,VALID,0.00195313,
2010-05-04, 02:29:04,VALID,997.3,VALID,0,VALID,93.6536,VALID,0,VALID,23.0964,VALID,83,VALID,0,
2010-05-04, 02:30:04,VALID,997.291,VALID,0,VALID,93.6765,VALID,0,VALID,23.1159,VALID,83,VALID,0,
2010-05-04, 02:31:04,VALID,997.225,VALID,0,VALID,93.6994,VALID,0,VALID,23.1141,VALID,83,VALID,0,
2010-05-04, 02:32:04,VALID,997.205,VALID,0,VALID,93.7375,VALID,0,VALID,23.1336,VALID,84,VALID,0.209766,
2010-05-04, 02:33:04,VALID,997.18,VALID,0,VALID,93.7757,VALID,0,VALID,23.1726,VALID,92,VALID,0.613672,
2010-05-04, 02:34:04,VALID,997.142,VALID,0,VALID,93.707,VALID,0.112286,VALID,23.1744,VALID,106,VALID,0.798437,
2010-05-04, 02:35:04,VALID,997.148,VALID,0,VALID,93.768,VALID,0,VALID,23.1726,VALID,106,VALID,0.800391,
2010-05-04, 02:36:04,VALID,997.117,VALID,0,VALID,93.7604,VALID,0,VALID,23.2117,VALID,106,VALID,0.73125,
2010-05-04, 02:37:04,VALID,997.138,VALID,0,VALID,93.7451,VALID,0,VALID,23.1939,VALID,106,VALID,0.572656,
2010-05-04, 02:38:04,VALID,997.146,VALID,0,VALID,93.7146,VALID,0,VALID,23.1744,VALID,106,VALID,0.533984,
2010-05-04, 02:39:04,VALID,997.132,VALID,0,VALID,93.7451,VALID,0,VALID,23.1336,VALID,106,VALID,0.393359,
2010-05-04, 02:40:04,VALID,997.154,VALID,0,VALID,93.7146,VALID,0,VALID,23.1354,VALID,106,VALID,0,
2010-05-04, 02:41:04,VALID,997.137,VALID,0,VALID,93.6765,VALID,0,VALID,23.0964,VALID,106,VALID,0,
2010-05-04, 02:42:04,VALID,997.113,VALID,0,VALID,93.7223,VALID,0,VALID,23.0573,VALID,106,VALID,0,
2010-05-04, 02:43:04,VALID,997.133,VALID,0,VALID,93.7528,VALID,0,VALID,23.0361,VALID,106,VALID,0,
2010-05-04, 02:44:04,VALID,997.138,VALID,0,VALID,93.7757,VALID,0,VALID,23.0964,VALID,106,VALID,0,
2010-05-04, 02:45:04,VALID,997.127,VALID,0,VALID,93.7833,VALID,0,VALID,23.0946,VALID,106,VALID,0,
2010-05-04, 02:46:04,VALID,997.125,VALID,0,VALID,93.7299,VALID,0,VALID,23.0751,VALID,106,VALID,0,
2010-05-04, 02:47:04,VALID,997.111,VALID,0,VALID,93.7757,VALID,0,VALID,23.0556,VALID,45,VALID,0,
2010-05-04, 02:48:04,VALID,997.119,VALID,0,VALID,93.7985,VALID,0,VALID,23.0751,VALID,45,VALID,0,
2010-05-04, 02:49:04,VALID,997.146,VALID,0,VALID,93.7909,VALID,0,VALID,23.0751,VALID,45,VALID,0,
2010-05-04, 02:50:04,VALID,997.133,VALID,0,VALID,93.7223,VALID,0.112286,VALID,23.0556,VALID,34,VALID,0,
2010-05-04, 02:51:04,VALID,997.114,VALID,0,VALID,93.707,VALID,0,VALID,22.9971,VALID,34,VALID,0,
2010-05-04, 02:52:04,VALID,997.13,VALID,0,VALID,93.7223,VALID,0.112286,VALID,22.9598,VALID,31,VALID,0,
2010-05-04, 02:53:04,VALID,997.089,VALID,0,VALID,93.7146,VALID,0,VALID,22.8995,VALID,29,VALID,0,
2010-05-04, 02:54:04,VALID,997.11,VALID,0,VALID,93.6765,VALID,0,VALID,22.8818,VALID,29,VALID,0,
2010-05-04, 02:55:04,VALID,997.083,VALID,0,VALID,93.6765,VALID,0,VALID,22.8215,VALID,29,VALID,0,
2010-05-04, 02:56:04,VALID,997.105,VALID,0,VALID,93.7528,VALID,0,VALID,22.8427,VALID,43,VALID,0,
2010-05-04, 02:57:04,VALID,997.108,VALID,0,VALID,93.7909,VALID,0,VALID,22.8427,VALID,72,VALID,0,
2010-05-04, 02:58:04,VALID,997.156,VALID,0,VALID,93.7757,VALID,0.112286,VALID,22.802,VALID,72,VALID,0,
2010-05-04, 02:59:04,VALID,997.153,VALID,0,VALID,93.7604,VALID,0,VALID,22.802,VALID,72,VALID,0,
2010-05-04, 03:00:04,VALID,997.147,VALID,0,VALID,93.7909,VALID,0,VALID,22.802,VALID,72,VALID,0,
2010-05-04, 03:01:04,VALID,997.171,VALID,0,VALID,93.8214,VALID,0,VALID,22.8037,VALID,72,VALID,0,
2010-05-04, 03:02:04,VALID,997.146,VALID,0,VALID,93.8214,VALID,0,VALID,22.802,VALID,72,VALID,0,
2010-05-04, 03:03:04,VALID,997.126,VALID,0,VALID,93.8367,VALID,0,VALID,22.8232,VALID,72,VALID,0,
2010-05-04, 03:04:04,VALID,997.134,VALID,0,VALID,93.8748,VALID,0,VALID,22.841,VALID,72,VALID,0,
2010-05-04, 03:05:04,VALID,997.135,VALID,0,VALID,93.9054,VALID,0,VALID,22.9208,VALID,72,VALID,0,
2010-05-04, 03:06:04,VALID,997.13,VALID,0,VALID,93.9054,VALID,0,VALID,22.919,VALID,72,VALID,0,
2010-05-04, 03:07:04,VALID,997.161,VALID,0,VALID,93.9206,VALID,0,VALID,22.9598,VALID,72,VALID,0,
2010-05-04, 03:08:04,VALID,997.156,VALID,0,VALID,93.913,VALID,0,VALID,22.9776,VALID,72,VALID,0,
2010-05-04, 03:09:04,VALID,997.165,VALID,0,VALID,93.9054,VALID,0,VALID,22.9776,VALID,72,VALID,0,
2010-05-04, 03:10:04,VALID,997.172,VALID,0,VALID,93.9054,VALID,0,VALID,22.9776,VALID,72,VALID,0,
2010-05-04, 03:11:04,VALID,997.182,VALID,0,VALID,93.9054,VALID,0,VALID,22.9776,VALID,72,VALID,0,
2010-05-04, 03:12:04,VALID,997.184,VALID,0,VALID,93.9359,VALID,0,VALID,22.9971,VALID,72,VALID,0,
2010-05-04, 03:13:04,VALID,997.156,VALID,0,VALID,93.913,VALID,0,VALID,22.9971,VALID,72,VALID,0,
2010-05-04, 03:14:04,VALID,997.136,VALID,0,VALID,93.9206,VALID,0,VALID,22.9971,VALID,72,VALID,0,
2010-05-04, 03:15:04,VALID,997.162,VALID,0,VALID,93.9206,VALID,0,VALID,22.9971,VALID,72,VALID,0,
2010-05-04, 03:16:04,VALID,997.17,VALID,0,VALID,93.9359,VALID,0,VALID,23.0183,VALID,72,VALID,0,
2010-05-04, 03:17:04,VALID,997.142,VALID,0,VALID,93.9283,VALID,0,VALID,22.9971,VALID,72,VALID,0,
2010-05-04, 03:18:04,VALID,997.177,VALID,0,VALID,93.9054,VALID,0,VALID,22.9793,VALID,72,VALID,0,
2010-05-04, 03:19:04,VALID,997.139,VALID,0,VALID,93.8977,VALID,0,VALID,22.9385,VALID,72,VALID,0,
2010-05-04, 03:20:04,VALID,997.152,VALID,0,VALID,93.913,VALID,0,VALID,22.919,VALID,72,VALID,0,
2010-05-04, 03:21:04,VALID,997.139,VALID,0,VALID,93.9511,VALID,0,VALID,22.9385,VALID,72,VALID,0,
2010-05-04, 03:22:04,VALID,997.14,VALID,0,VALID,93.9359,VALID,0,VALID,22.919,VALID,72,VALID,0,
2010-05-04, 03:23:04,VALID,997.146,VALID,0,VALID,93.9206,VALID,0,VALID,22.9013,VALID,72,VALID,0,
2010-05-04, 03:24:04,VALID,997.12,VALID,0,VALID,93.8977,VALID,0,VALID,22.841,VALID,72,VALID,0,
2010-05-04, 03:25:04,VALID,997.144,VALID,0,VALID,93.9283,VALID,0,VALID,22.88,VALID,72,VALID,0,
2010-05-04, 03:26:04,VALID,997.148,VALID,0,VALID,93.9511,VALID,0,VALID,22.9403,VALID,72,VALID,0,
2010-05-04, 03:27:04,VALID,997.152,VALID,0,VALID,93.974,VALID,0,VALID,22.9776,VALID,72,VALID,0,
2010-05-04, 03:28:04,VALID,997.15,VALID,0,VALID,93.9893,VALID,0,VALID,23.0361,VALID,72,VALID,0,
2010-05-04, 03:29:04,VALID,997.14,VALID,0,VALID,93.9969,VALID,0,VALID,23.0751,VALID,72,VALID,0,
2010-05-04, 03:30:04,VALID,997.135,VALID,0,VALID,94.0122,VALID,0,VALID,23.1141,VALID,72,VALID,0,
2010-05-04, 03:31:04,VALID,997.137,VALID,0,VALID,94.0198,VALID,0,VALID,23.1336,VALID,72,VALID,0,
2010-05-04, 03:32:04,VALID,997.152,VALID,0,VALID,94.0198,VALID,0,VALID,23.1744,VALID,72,VALID,0,
2010-05-04, 03:33:04,VALID,997.15,VALID,0,VALID,94.0045,VALID,0,VALID,23.1744,VALID,72,VALID,0,
2010-05-04, 03:34:04,VALID,997.179,VALID,0,VALID,94.0351,VALID,0,VALID,23.2134,VALID,72,VALID,0,
2010-05-04, 03:35:04,VALID,997.146,VALID,0,VALID,94.0351,VALID,0,VALID,23.2329,VALID,72,VALID,0,
2010-05-04, 03:36:04,VALID,997.136,VALID,0,VALID,93.9969,VALID,0,VALID,23.2329,VALID,72,VALID,0,
2010-05-04, 03:37:04,VALID,997.15,VALID,0,VALID,94.0045,VALID,0,VALID,23.2329,VALID,72,VALID,0,
2010-05-04, 03:38:04,VALID,997.18,VALID,0,VALID,93.9893,VALID,0,VALID,23.2134,VALID,72,VALID,0,
2010-05-04, 03:39:04,VALID,997.19,VALID,0,VALID,93.9206,VALID,0,VALID,23.1354,VALID,72,VALID,0,
2010-05-04, 03:40:04,VALID,997.194,VALID,0,VALID,93.9359,VALID,0,VALID,23.0964,VALID,72,VALID,0,
2010-05-04, 03:41:04,VALID,997.206,VALID,0,VALID,93.9359,VALID,0,VALID,23.0591,VALID,72,VALID,0,
2010-05-04, 03:42:04,VALID,997.202,VALID,0,VALID,93.9359,VALID,0,VALID,22.9988,VALID,72,VALID,0,
2010-05-04, 03:43:04,VALID,997.212,VALID,0,VALID,93.9435,VALID,0,VALID,22.9598,VALID,72,VALID,0,
2010-05-04, 03:44:04,VALID,997.195,VALID,0,VALID,93.9893,VALID,0,VALID,22.9598,VALID,72,VALID,0,
2010-05-04, 03:45:04,VALID,997.197,VALID,0,VALID,93.9893,VALID,0,VALID,22.9793,VALID,72,VALID,0,
2010-05-04, 03:46:04,VALID,997.226,VALID,0,VALID,94.0122,VALID,0,VALID,23.0183,VALID,72,VALID,0,
2010-05-04, 03:47:04,VALID,997.22,VALID,0,VALID,94.0122,VALID,0,VALID,23.0166,VALID,72,VALID,0,
2010-05-04, 03:48:04,VALID,997.258,VALID,0,VALID,94.0198,VALID,0.112286,VALID,22.9953,VALID,72,VALID,0,
2010-05-04, 03:49:04,VALID,997.288,VALID,0,VALID,93.974,VALID,0.112286,VALID,22.9971,VALID,72,VALID,0,
2010-05-04, 03:50:04,VALID,997.28,VALID,0,VALID,93.9817,VALID,0,VALID,22.9776,VALID,72,VALID,0,
2010-05-04, 03:51:04,VALID,997.273,VALID,0,VALID,94.0198,VALID,0,VALID,22.9971,VALID,72,VALID,0,
2010-05-04, 03:52:04,VALID,997.319,VALID,0,VALID,93.9893,VALID,0.112286,VALID,22.9971,VALID,72,VALID,0,
2010-05-04, 03:53:04,VALID,997.301,VALID,0,VALID,94.0122,VALID,0,VALID,22.9971,VALID,72,VALID,0,
2010-05-04, 03:54:04,VALID,997.286,VALID,0,VALID,94.0045,VALID,0,VALID,23.0166,VALID,72,VALID,0,